FW4141 Weather Reports


time (UTC)temp
F
wind
direction
speed
knots
gust
knots
rain 1hr
in
rain 24hr
in
rain mn
in
humidity
%
barometer
mb
20260507002042 51 0.0 0.0 0.00 0.00 0.00 80 1001.1
20260507001038 51 0.0 0.0 0.00 0.00 0.00 80 1001.3
20260507000034 51 0.0 0.0 0.00 0.00 0.00 80 1001.3
20260506235032 51 0.0 0.0 0.00 0.00 0.00 80 1001.2
20260506234028 52 0.0 0.0 0.00 0.00 0.00 80 1001.1
20260506233025 52 0.0 0.0 0.00 0.00 0.00 80 1001.3
20260506232020 52 0.0 0.0 0.00 0.00 0.00 80 1001.2
20260506231018 52 0.0 0.0 0.00 0.00 0.00 80 1001.1
20260506230118 52 0.0 0.0 0.00 0.00 0.00 80 1001.2
20260506225152 52 0.0 0.0 0.00 0.00 0.00 79 1001.0
20260506224126 52 0.0 0.0 0.00 0.00 0.00 79 1000.9
20260506223104 52 0.0 0.0 0.00 0.00 0.00 79 1000.9
20260506222104 52 0.0 0.0 0.00 0.00 0.00 80 1001.0
20260506221056 52 0.0 0.0 0.00 0.00 0.00 80 1001.1
20260506220053 53 0.0 0.0 0.00 0.00 0.00 80 1001.0
20260506215052 53 0.0 0.0 0.00 0.00 0.00 79 1001.1
20260506214116 53 0.0 0.0 0.00 0.00 0.00 80 1001.1
20260506213050 53 0.0 0.0 0.00 0.00 0.00 80 1001.0
20260506212042 53 0.0 0.0 0.00 0.00 0.00 80 1001.2
20260506210150 53 0.0 0.0 0.00 0.00 0.00 80 1001.1
20260506204056 53 0.0 0.0 0.00 0.00 0.00 80 1001.2
20260506202143 53 0.0 0.0 0.00 0.00 0.00 80 1000.6
20260506201129 53 0.0 0.0 0.00 0.00 0.00 80 1000.5
20260506200117 53 0.0 0.0 0.00 0.00 0.00 80 1000.7
20260506195117 53 0.0 0.0 0.00 0.00 0.00 79 1000.5
20260506194253 53 0.0 0.0 0.00 0.00 0.00 79 1000.5
20260506193128 54 0.0 0.0 0.00 0.00 0.00 78 1000.6
20260506191117 54 0.0 0.0 0.00 0.00 0.00 74 1000.4
20260506184047 55 0.0 0.0 0.00 0.00 0.00 72 1000.2
20260506183035 56 0.0 0.0 0.00 0.00 0.00 71 1000.0
20260506182113 56 0.0 0.0 0.00 0.00 0.00 71 999.9
20260506181027 57 0.0 0.0 0.00 0.00 0.00 70 999.8
20260506180100 58 0.0 0.0 0.00 0.00 0.00 70 999.9
20260506175158 59 0.0 0.0 0.00 0.00 0.00 69 999.8
20260506174116 59 0.0 0.0 0.00 0.00 0.00 68 1000.0
20260506173134 61 0.0 0.0 0.00 0.00 0.00 65 999.7
20260506172108 62 0.0 0.0 0.00 0.00 0.00 65 999.7
20260506171110 63 0.0 0.0 0.00 0.00 0.00 62 999.6
20260506170204 65 0.0 0.0 0.00 0.00 0.00 60 999.5
20260506165143 66 0.0 0.0 0.00 0.00 0.00 60 999.2
20260506163053 65 0.0 0.0 0.00 0.00 0.00 61 999.2
20260506162049 66 0.0 0.0 0.00 0.00 0.00 60 999.1
20260506161044 68 0.0 0.0 0.00 0.00 0.00 57 999.0
20260506160040 69 0.0 0.0 0.00 0.00 0.00 56 999.0
20260506155057 71 0.0 0.0 0.00 0.00 0.00 53 998.9
20260506154043 71 0.0 0.0 0.00 0.00 0.00 54 998.8
20260506153031 72 0.0 0.0 0.00 0.00 0.00 50 998.7
20260506152034 74 0.0 0.0 0.00 0.00 0.00 41 998.4
20260506151031 75 0.0 0.0 0.00 0.00 0.00 41 998.4
20260506150020 73 0.0 0.0 0.00 0.00 0.00 43 998.3
20260506145114 73 0.0 0.0 0.00 0.00 0.00 41 998.2
20260506144120 74 0.0 0.0 0.00 0.00 0.00 40 998.2
20260506143107 77 0.0 0.0 0.00 0.00 0.00 40 998.1
20260506142122 73 0.0 0.0 0.00 0.00 0.00 41 998.2
20260506141102 75 0.0 0.0 0.00 0.00 0.00 41 998.1
20260506140109 74 0.0 0.0 0.00 0.00 0.00 41 998.1
20260506135052 75 0.0 0.0 0.00 0.00 0.00 40 998.1
20260506134048 75 0.0 0.0 0.00 0.00 0.00 41 998.1
20260506133052 75 0.0 0.0 0.00 0.00 0.00 40 998.0
20260506132109 75 0.0 0.0 0.00 0.00 0.00 40 997.9
20260506131042 73 0.0 0.0 0.00 0.00 0.00 43 998.0
20260506130033 71 0.0 0.0 0.00 0.00 0.00 47 998.0
20260506125030 71 0.0 0.0 0.00 0.00 0.00 50 998.0
20260506124026 71 0.0 0.0 0.00 0.00 0.00 50 998.0
20260506123048 73 0.0 0.0 0.00 0.00 0.00 45 998.0
20260506122024 73 0.0 0.0 0.00 0.00 0.00 46 997.7
20260506121119 72 0.0 0.0 0.00 0.00 0.00 50 997.7
20260506120114 71 0.0 0.0 0.00 0.00 0.00 50 997.6
20260506115112 72 0.0 0.0 0.00 0.00 0.00 51 997.6
20260506114104 70 0.0 0.0 0.00 0.00 0.00 52 997.6
20260506113122 69 0.0 0.0 0.00 0.00 0.00 52 997.6
20260506112057 70 0.0 0.0 0.00 0.00 0.00 52 997.5
20260506111055 70 0.0 0.0 0.00 0.00 0.00 52 997.5
20260506110133 70 0.0 0.0 0.00 0.00 0.00 52 997.6
20260506105048 68 0.0 0.0 0.00 0.00 0.00 56 997.6
20260506104047 67 0.0 0.0 0.00 0.00 0.00 55 997.7
20260506103101 68 0.0 0.0 0.00 0.00 0.00 53 997.6
20260506102040 70 0.0 0.0 0.00 0.00 0.00 53 997.6
20260506101032 67 0.0 0.0 0.00 0.00 0.00 57 997.7
20260506100049 66 0.0 0.0 0.00 0.00 0.00 58 997.7
20260506095027 67 0.0 0.0 0.00 0.00 0.00 56 997.6
20260506094022 67 0.0 0.0 0.00 0.00 0.00 60 997.5
20260506093018 66 0.0 0.0 0.00 0.00 0.00 58 997.5
20260506092114 67 0.0 0.0 0.00 0.00 0.00 56 997.4
20260506091111 68 0.0 0.0 0.00 0.00 0.00 55 997.3
20260506090109 69 0.0 0.0 0.00 0.00 0.00 56 997.2
20260506085125 68 0.0 0.0 0.00 0.00 0.00 60 997.1
20260506084101 67 0.0 0.0 0.00 0.00 0.00 60 997.4
20260506083058 66 0.0 0.0 0.00 0.00 0.00 62 997.4
20260506082055 64 0.0 0.0 0.00 0.00 0.00 63 997.4
20260506081052 63 0.0 0.0 0.00 0.00 0.00 68 997.5
20260506073107 61 0.0 0.0 0.00 0.00 0.00 70 997.6
20260506072036 60 0.0 0.0 0.00 0.00 0.00 70 997.6
20260506071055 59 0.0 0.0 0.00 0.00 0.00 67 997.8
20260506062121 56 0.0 0.0 0.00 0.00 0.00 78 997.6
20260506061220 55 0.0 0.0 0.00 0.00 0.00 80 997.7
20260506060117 55 0.0 0.0 0.00 0.00 0.00 81 997.7
20260506051052 53 0.0 0.0 0.00 0.00 0.00 87 997.7
20260506045039 53 0.0 0.0 0.00 0.00 0.00 88 997.7
20260506044035 53 0.0 0.0 0.00 0.00 0.00 88 997.7
20260506043040 52 0.0 0.0 0.00 0.00 0.00 88 997.9
20260506042028 52 0.0 0.0 0.00 0.00 0.00 88 997.7
20260506041025 52 0.0 0.0 0.00 0.00 0.00 88 997.6
20260506040021 52 0.0 0.0 0.00 0.00 0.00 88 997.3
20260506035038 52 0.0 0.0 0.00 0.00 0.00 87 996.8
20260506034115 52 0.0 0.0 0.00 0.00 0.00 87 997.2
20260506033110 52 0.0 0.0 0.00 0.00 0.00 87 997.9
20260506032108 52 0.0 0.0 0.00 0.00 0.00 87 997.8
20260506031106 52 0.0 0.0 0.00 0.00 0.00 87 998.0
20260506025057 52 0.0 0.0 0.00 0.00 0.00 86 998.5
20260506024053 52 0.0 0.0 0.00 0.00 0.00 86 998.6
20260506023052 52 0.0 0.0 0.00 0.00 0.00 86 998.7
20260506022046 53 0.0 0.0 0.00 0.00 0.00 87 998.7
20260506021045 53 0.0 0.0 0.00 0.00 0.00 87 998.6
20260506020039 53 0.0 0.0 0.00 0.00 0.00 88 998.9
20260506015035 53 0.0 0.0 0.00 0.00 0.00 88 998.9
20260506014031 53 0.0 0.0 0.00 0.00 0.00 89 999.2
20260506013028 53 0.0 0.0 0.00 0.00 0.00 88 999.1
20260506011020 53 0.0 0.0 0.00 0.00 0.00 88 998.5
20260506010016 53 0.0 0.0 0.00 0.00 0.00 88 998.9
20260506005133 53 0.0 0.0 0.00 0.00 0.00 87 998.6
20260506004111 53 0.0 0.0 0.00 0.00 0.00 87 998.5
20260506003106 53 0.0 0.0 0.00 0.00 0.00 86 998.5